AEHF 1 (USA 214)

导读

AEHF 1(USA 214)是美国发射的首颗先进极高频军用通信卫星,于2010年8月14日升空。它取代上一代Milstar系统,为美军提供全球安全、抗干扰的高容量通信服务,支持核战争环境下指挥控制,传输速率大幅提升,可满足多军种视频、语音和数据传输需求,作为AEHF星座首星,标志美国军用卫星通信进入新时代,至今仍在地球同步轨道服役。

基本信息
目录编号:
36868
目录名称:
AEHF 1 (USA 214)
国际标识:
2010-039A
轨道中心:
EARTH
卫星名称:
AEHF 1 (USA 214)
卫星全名:
--
卫星状态:
在轨 (已飞行5790 天)
发射日期:
2010-08-14 UTC
国别 :
美国 (US)
星等 :
--
轨道信息
数据来源 国际轨道数据 AOE轨道数据
星历时间 2026-06-20T15:50:26+0800
1天前
查看轨道信息
2026-06-21T04:00:00+0800
18小时前
查看轨道信息
半长轴 42163.467km 42163.355km
偏心率 0.0004022 0.0004117
轨道倾角 8.228° 8.229°
近地点辐角 8.835° 8.166°
升交点赤经 68.013° 68.008°
平近点角 339.292° 162.863°
近地点 35768.371km 35767.859km
远地点 35802.289km 35802.577km
周期 1436.032分钟 1436.027分钟
每日圈数 1.002763 1.002767
详细信息
使用方式:
暂无
2D轨道图
3D轨道图
轨道高度分析图
轨道倾角分析图
轨道综合分析图
查看轨道综合分析图